Current Conditions for Foresthill, CA. Clear skies, Dry   
Visibility: 10 miles
Space WX Alerts: ALERT:  Geomagnetic K-index of 4 ( Latest Alert ) - Issue Time: 2021 Jan 12 0151 UTC

  Summary / Temperature 

Current Temperature
53.1°F
11.7°C
(24/hr Ago)
51.8°F
(Apparent temp)
49.4°F
Cool
Wind Chill Graphs
53.1°F 

53.1°F/ 11.7°C
 --- Virtual Temp: 55.0°F ---

 Temp Rate:

 24/hr Difference:

 Avg Running Temp:

 Todays High:

 Todays Low:

 Y-days High:

 Y-days Low:

 Todays WChill:

 Y-days WChill:

 Evapotranspiration:

-0.3°F/hr 

+1.3°F

53.4°F

71.0°F 1:59pm

47.4°F 4:14am

67.8°F 1:54pm

49.5°F 7:25am

43.7°F 5:46am

44.8°F 8:10am

0.072 in

115' Above Ground

 Temperature:

 6'AGL VRS 115'AGL:

 Avg Running Temp:

 Humidity:

 Todays High:

 Todays Low:

 Y-days High:

 Y-days Low:

65.0°F 

+11.9°F

65.0°F

0% 

71.0°F 12:55pm

62.0°F 12:00am

68.0°F 12:26pm

59.0°F 9:28am

Temp & Humidity Graphs

  Wind 

Wind Speed

 4.0 mph

Gusting to

 13.0 mph

Wind from E

99°  E

Light breeze

 Avg speed:

 Wind Run:

 Peak Gust:

  3.0 mph 

26.0 miles

  15.0 mph 10:18pm

  Almanac  

Moon age: 5 days,0 hours,40 minutes,26%

Waxing Crescent
26%
Illuminated
5 days in cycle

 Moonrise:

 Moonset:

 Sunrise:

 Sunset:

 Solar Noon:

10:21am

10:01pm

7:17am

5:05pm

12:14pm

1min 33s more daylight tomorrow 

  Solar Radiation 

(Current Solar)
  No Sun Light
(Todays High)
 506 W/m2@11:57am

Rain

 Rain Today:

 Rain Rate (/hr):

 Rain last hour:

 Rain Yesterday:

 This Month:

 Season Total:

3 Days Since Last Rain Day

0.00 in

0.000 in

0.00 in

0.00 in

0.91 in

9.09 in

Updated Time

Updated: 1/17/21  10:34pm

(Updated  sec ago)

Humidity & Barometer

 Humidity:

 Wetbulb:

 Dew Point:

 Barometer:

64% 

47.4°F 

41.2°F 

30.031 inHg 

 Baro Trend:  Steady 
Northern Calif
Preparedness
Fire 
Level 

    UV Index  

(Current UV)
0.0  None
(Todays High) @ 11:52am
2.1   Low

National Weather Service Forecast

This
Afternoon
This Afternoon: Sunny
Sunny
Tonight

Tonight: Partly Cloudy
Partly Cloudy
M.L. King
Jr. Day
M.L. King Jr. Day: Sunny
Sunny
Monday
Night
Monday Night: Mostly Clear
Mostly Clear
Tuesday

Tuesday: Sunny
Sunny
Tuesday
Night
Tuesday Night: Clear
Clear
Hi 67 °F ↓ Lo 50 °F Hi 64 °F ↓ Lo 46 °F Hi 53 °F Lo 40 °F

Foresthill Probe 2 Stats  
Foresthill Probe 2: is located on Thomas Street
at 3000 feet. The main Foresthill Weather site
is located on Melody ln at the 2860 foot elevation

Calm
52.2°F
11.2°C
Temp Rate:
-0.4°F
Calm
Gusting to
1.0 mph
(Humidity)
65%
Wind from E
98°  E
Updated: 17/01/21 - 22:35:04
 Todays High: 67.5°F 13:37
 Todays Low: 46.6°F 03:30
 Rain Today: 0.00 in
 Season Total: 9.36 in

Foresthill Wx: Monthly,Yearly, Highs and Lows 

Foresthill  
This Weather Data is coming from the main Foresthill
Weather site located on Melody ln at the 2860 foot
elevation
Not Foresthill Probe 2
Weather Data
Month
  High
Month
  Low
Year
High
Year
Low
Temp 71.0°F
1/17/21
35.1°F
1/1/21
71.0°F
1/17/21
35.1°F
1/1/21
Humidity 100%
1/3/21
25%
1/14/21
100%
1/3/21
25%
1/14/21
Heat Index 70.2°F
1/17/21
38.5°F
1/9/21
70.2°F
1/17/21
38.5°F
1/9/21
Wind Chill 71.0°F
1/17/21
24.3°F
1/5/21
71.0°F
1/17/21
24.3°F
1/5/21
Wind Gust 33 mph
1/4/21
0 mph
1/1/21
33 mph
1/4/21
0 mph
1/1/21
Barometer 30.47 in
1/13/21
30.03 in
1/17/21
30.47 in
1/13/21
30.03 in
1/17/21
ET 0.09 in
1/14/21
0.00 in
1/1/21
0.09 in
1/14/21
0.00 in
1/1/21
Dew Point 51.9°F
1/13/21
22.5°F
1/14/21
51.9°F
1/13/21
22.5°F
1/14/21
Visible Satellite Pacific Satellite US Radar Satellite Imagery Sacramento,CA.  (click to enlarge)
NWS Weather Forecast - Summary
Updated: Sunday, January 17, 2021 - 2:30pm PST
Strong North to East Wind Late Tonight Through Tuesday
NWS Weather Forecast: This Afternoon and Tonight (Updated: Sun, 17-Jan-2021 1:57pm PST)
This
Afternoon
This Afternoon: Sunny
Sunny

Hi 67 °F ↓
NWS forecast: Sunny. High near 67, with temperatures falling to around 57 in the afternoon. South southwest wind around 3 mph.
Tonight

Tonight: Partly Cloudy
Partly Cloudy

Lo 50 °F
NWS forecast: Partly cloudy, with a low around 50. Southeast wind 3 to 18 mph, with gusts as high as 31 mph.
YR.NO 10 Day Weather forecast
Last update: 01/17/2021 @ 17:46
Next update: 01/17/2021 @ 23:48
Provided by: 22
      Temperature Precipitation Pressure Wind  
Today
01/17/2021
21:00 00:00 45°F   30.02 inHg Gentle breeze from east-northeast 8 mph
    (Click to enlarge)
meteogram

    Forecast for next 9 days

      Temperature Precip Pressure Wind  
Monday
01/18/2021
00:00 06:00 54°F   29.99 inHg Moderate breeze from east-northeast 14 mph
  06:00 12:00 54°F   29.96 inHg Moderate breeze from east-northeast 16 mph
  12:00 18:00 63°F   29.99 inHg Light breeze from northeast 6 mph
  18:00 00:00 48°F   30.00 inHg Gentle breeze from east-northeast 10 mph
      Temperature Precip Pressure Wind  
Tuesday
01/19/2021
00:00 06:00 37°F   30.04 inHg Light breeze from north 6 mph
  06:00 12:00 34°F   30.06 inHg Light breeze from north-northwest 6 mph
  12:00 18:00 48°F   30.04 inHg Light air from northeast 2 mph
  18:00 00:00 39°F   30.05 inHg Light air from north-northwest 2 mph
      Temperature Precip Pressure Wind  
Wednesday
01/20/2021
00:00 06:00 41°F   30.11 inHg Moderate breeze from east-northeast 15 mph
  04:00 10:00 36°F   30.09 inHg Gentle breeze from east-northeast 8 mph
  10:00 16:00 50°F   30.07 inHg Light breeze from east-northeast 4 mph
  16:00 22:00 52°F   30.03 inHg Light air from west-southwest 2 mph
  22:00 04:00 32°F   30.05 inHg Light air from east 3 mph
      Temperature Precip Pressure Wind  
Thursday
01/21/2021
04:00 10:00 28°F   30.02 inHg Light breeze from east 4 mph
  10:00 16:00 52°F   30.01 inHg Light air from south 3 mph
  16:00 22:00 50°F   29.92 inHg Light air from southwest 3 mph
  22:00 04:00 39°F   29.93 inHg Light breeze from east-southeast 7 mph
      Temperature Precip Pressure Wind  
Friday
01/22/2021
04:00 10:00 37°F 0.05 in 29.92 inHg Light breeze from south 7 mph
  10:00 16:00 36°F 0.02 in 29.96 inHg Light breeze from south-southeast 7 mph
  16:00 22:00 39°F 0.02 in 29.89 inHg Light air from southwest 3 mph
  22:00 04:00 32°F   29.95 inHg Light air from east-northeast 1 mph
      Temperature Precip Pressure Wind  
Saturday
01/23/2021
04:00 10:00 27°F   29.99 inHg Light air from east 3 mph
  10:00 16:00 39°F   30.08 inHg Light air from west-southwest 2 mph
  16:00 22:00 43°F   30.03 inHg Light breeze from west-northwest 4 mph
  22:00 04:00 30°F   30.08 inHg Light breeze from east-northeast 7 mph
      Temperature Precip Pressure Wind  
Sunday
01/24/2021
04:00 10:00 28°F   30.08 inHg Light breeze from east-northeast 6 mph
  10:00 16:00 45°F   30.10 inHg Light air from south-southwest 1 mph
  16:00 22:00 43°F   30.02 inHg Light breeze from southwest 5 mph
  22:00 04:00 36°F 0.05 in 30.01 inHg Light breeze from east-southeast 4 mph
      Temperature Precip Pressure Wind  
Monday
01/25/2021
04:00 10:00 36°F 0.41 in 29.87 inHg Gentle breeze from south-southeast 8 mph
  10:00 16:00 32°F 0.37 in 29.77 inHg Moderate breeze from south 12 mph
  16:00 22:00 30°F 0.06 in 29.79 inHg Gentle breeze from southwest 9 mph
  22:00 04:00 25°F 0.07 in 29.92 inHg Light air from east-southeast 3 mph
      Temperature Precip Pressure Wind  
Tuesday
01/26/2021
04:00 10:00 25°F   30.05 inHg Light breeze from east-southeast 4 mph
  10:00 16:00 30°F   30.21 inHg Light breeze from south 5 mph
  16:00 22:00 34°F   30.20 inHg Light breeze from south 6 mph
How Close Are We To this Month's Temperature Record ?
Updated Sunday, Jan 17, 2021- 10:35:00 PM

Current Temperature: 53.1°F

January's High: Temperature Record 71.3°F - Set on Sat, Jan 24, 2015 - 3:19:00 PM
We are currently 18.2°F Less than this Month's record High

January's Low: Temperature Record 24.7°F - Set on Sun, Jan 13, 2013 - 7:29:00 AM
We are currently 28.4°F More than this Month's record Low

Weather History For Monday, January 18, 2021


On this Day - In Weather History ...
Data courtesy of weatherforyou.com
powered by Cumulus v1.9.3 (1059)
Ambient Weather VWS v14.00
Top Website Map Copyright © 2007 - 2021 Foresthillweather.com Never base important decisions on this or any weather information obtained from the Internet